When you browse on this site, cookies collect data to enhance your experience and personalize the content and advertising you see.
Visit our Privacy Policy to learn more. By continuing to use the site, you agree to this use of cookies and data.
  • In Austria
  • List of Countries
  • For 7 days
  • Water Temperature
  • Satellite Maps
  • Weather Map
  • News
  • Weather Widgets
  • user-avatar
    Login

    Hourly Weather Mongu

    Today, 21 November, Wednesday

    Time Temperature Precipitation Wind Pressure Humidity
    00:00 +30°C° 0.1 mm 1 mps 672 mmHg 32%
    01:00 +29°C° 0.1 mm 2 mps 672 mmHg 35%
    02:00 +28°C° 0.1 mm 2 mps 672 mmHg 37%
    03:00 +27°C° 0 mm 2 mps 672 mmHg 40%
    04:00 +27°C° 0 mm 2 mps 672 mmHg 42%
    05:00 +26°C° 0 mm 2 mps 672 mmHg 45%
    06:00 +28°C° 0 mm 3 mps 673 mmHg 43%
    07:00 +29°C° 0 mm 3 mps 673 mmHg 40%
    08:00 +31°C° 0 mm 3 mps 674 mmHg 38%
    09:00 +34°C° 0 mm 3 mps 674 mmHg 33%
    10:00 +36°C° 0 mm 3 mps 675 mmHg 28%
    11:00 +39°C° 0 mm 3 mps 675 mmHg 23%
    12:00 +38°C° 0 mm 3 mps 674 mmHg 23%
    13:00 +37°C° 0 mm 2 mps 673 mmHg 24%
    14:00 +37°C° 0 mm 2 mps 672 mmHg 24%
    15:00 +37°C° 0 mm 2 mps 672 mmHg 24%
    16:00 +36°C° 0 mm 1 mps 671 mmHg 24%
    17:00 +36°C° 0 mm 1 mps 671 mmHg 24%
    18:00 +34°C° 0 mm 1 mps 671 mmHg 28%
    19:00 +32°C° 0 mm 2 mps 671 mmHg 32%
    20:00 +30°C° 0 mm 2 mps 671 mmHg 36%
    21:00 +29°C° 0 mm 2 mps 671 mmHg 38%
    22:00 +28°C° 0 mm 2 mps 671 mmHg 41%
    23:00 +28°C° 0 mm 2 mps 672 mmHg 44%

    Tomorrow, 22 November, Thursday

    Time Temperature Precipitation Wind Pressure Humidity
    00:00 +27°C° 0 mm 2 mps 671 mmHg 46%
    01:00 +27°C° 0 mm 2 mps 671 mmHg 47%
    02:00 +26°C° 0 mm 2 mps 671 mmHg 49%
    03:00 +26°C° 0 mm 2 mps 671 mmHg 52%
    04:00 +25°C° 0 mm 2 mps 671 mmHg 55%
    05:00 +25°C° 0 mm 2 mps 671 mmHg 59%
    06:00 +26°C° 0 mm 2 mps 672 mmHg 55%
    07:00 +27°C° 0 mm 3 mps 673 mmHg 51%
    08:00 +28°C° 0 mm 3 mps 673 mmHg 47%
    09:00 +31°C° 0 mm 3 mps 674 mmHg 40%
    10:00 +34°C° 0 mm 3 mps 674 mmHg 34%
    11:00 +37°C° 0 mm 3 mps 674 mmHg 27%
    12:00 +38°C° 0 mm 2 mps 673 mmHg 24%
    13:00 +40°C° 0 mm 1 mps 673 mmHg 21%
    14:00 +41°C° 0 mm 1 mps 672 mmHg 19%
    15:00 +40°C° 0 mm 1 mps 671 mmHg 20%
    16:00 +39°C° 0 mm 1 mps 671 mmHg 21%
    17:00 +37°C° 0 mm 1 mps 670 mmHg 22%
    18:00 +35°C° 0 mm 1 mps 670 mmHg 25%
    19:00 +33°C° 0 mm 1 mps 670 mmHg 28%
    20:00 +31°C° 0 mm 1 mps 670 mmHg 31%
    21:00 +30°C° 0 mm 1 mps 671 mmHg 34%
    22:00 +29°C° 0 mm 2 mps 672 mmHg 36%
    23:00 +28°C° 0 mm 2 mps 672 mmHg 39%

    Day after tomorrow, 23 November, Friday

    Time Temperature Precipitation Wind Pressure Humidity
    00:00 +27°C° 0.6 mm 2 mps 672 mmHg 50%
    01:00 +25°C° 0.6 mm 3 mps 672 mmHg 62%
    02:00 +24°C° 0.6 mm 3 mps 672 mmHg 73%
    03:00 +24°C° 0.4 mm 3 mps 672 mmHg 76%
    04:00 +22°C° 0.4 mm 3 mps 672 mmHg 80%
    05:00 +21°C° 0.4 mm 2 mps 672 mmHg 83%
    06:00 +24°C° 0.1 mm 3 mps 673 mmHg 77%
    07:00 +25°C° 0.1 mm 3 mps 673 mmHg 71%
    08:00 +27°C° 0.1 mm 3 mps 674 mmHg 65%
    09:00 +29°C° 0 mm 3 mps 674 mmHg 55%
    10:00 +31°C° 0 mm 3 mps 675 mmHg 46%
    11:00 +35°C° 0 mm 2 mps 675 mmHg 37%
    12:00 +35°C° 0.1 mm 2 mps 674 mmHg 37%
    13:00 +34°C° 0.1 mm 1 mps 673 mmHg 37%
    14:00 +33°C° 0.1 mm 1 mps 672 mmHg 36%
    15:00 +33°C° 0 mm 1 mps 672 mmHg 36%
    16:00 +34°C° 0 mm 2 mps 672 mmHg 36%
    17:00 +34°C° 0 mm 2 mps 671 mmHg 36%
    18:00 +32°C° 0 mm 2 mps 671 mmHg 41%
    19:00 +30°C° 0 mm 2 mps 672 mmHg 46%
    20:00 +28°C° 0 mm 2 mps 672 mmHg 51%
    21:00 +27°C° 0.2 mm 2 mps 672 mmHg 57%
    22:00 +26°C° 0.2 mm 2 mps 672 mmHg 63%
    23:00 +25°C° 0.2 mm 2 mps 673 mmHg 69%

    24 November, Saturday

    Time Temperature Precipitation Wind Pressure Humidity
    00:00 +24°C° 1 mm 2 mps 672 mmHg 73%
    01:00 +24°C° 1 mm 1 mps 672 mmHg 77%
    02:00 +23°C° 1 mm 1 mps 672 mmHg 82%
    03:00 +23°C° 0.5 mm 1 mps 672 mmHg 82%
    04:00 +23°C° 0.5 mm 1 mps 672 mmHg 83%
    05:00 +23°C° 0.5 mm 1 mps 672 mmHg 84%
    06:00 +24°C° 0 mm 2 mps 673 mmHg 77%
    07:00 +25°C° 0 mm 2 mps 674 mmHg 71%
    08:00 +27°C° 0 mm 2 mps 675 mmHg 65%
    09:00 +29°C° 0 mm 2 mps 675 mmHg 56%
    10:00 +32°C° 0 mm 2 mps 675 mmHg 46%
    11:00 +35°C° 0 mm 2 mps 675 mmHg 36%
    12:00 +35°C° 0 mm 2 mps 674 mmHg 36%
    13:00 +35°C° 0 mm 2 mps 673 mmHg 36%
    14:00 +34°C° 0 mm 2 mps 672 mmHg 36%
    15:00 +33°C° 0 mm 1 mps 672 mmHg 36%
    16:00 +34°C° 0 mm 1 mps 672 mmHg 35%
    17:00 +34°C° 0 mm 1 mps 672 mmHg 35%
    18:00 +32°C° 0.1 mm 1 mps 672 mmHg 40%
    19:00 +30°C° 0.1 mm 1 mps 672 mmHg 46%
    20:00 +28°C° 0.1 mm 1 mps 672 mmHg 51%
    21:00 +28°C° 0.2 mm 1 mps 673 mmHg 55%
    22:00 +27°C° 0.2 mm 1 mps 673 mmHg 58%
    23:00 +26°C° 0.2 mm 2 mps 673 mmHg 62%

    25 November, Sunday

    Time Temperature Precipitation Wind Pressure Humidity
    00:00 +25°C° 0.5 mm 2 mps 673 mmHg 66%
    01:00 +25°C° 0.5 mm 3 mps 672 mmHg 70%
    02:00 +24°C° 0.5 mm 3 mps 672 mmHg 74%
    03:00 +24°C° 0.7 mm 3 mps 672 mmHg 78%
    04:00 +23°C° 0.7 mm 2 mps 672 mmHg 82%
    05:00 +21°C° 0.7 mm 2 mps 673 mmHg 86%
    06:00 +23°C° 0.2 mm 2 mps 673 mmHg 83%
    07:00 +24°C° 0.2 mm 2 mps 674 mmHg 79%
    08:00 +25°C° 0.2 mm 3 mps 674 mmHg 76%
    09:00 +27°C° 0 mm 3 mps 674 mmHg 65%
    10:00 +30°C° 0 mm 3 mps 675 mmHg 54%
    11:00 +33°C° 0 mm 3 mps 675 mmHg 43%
    12:00 +34°C° 0 mm 2 mps 674 mmHg 40%
    13:00 +35°C° 0 mm 2 mps 673 mmHg 37%
    14:00 +35°C° 0 mm 2 mps 672 mmHg 34%
    15:00 +35°C° 0 mm 2 mps 672 mmHg 35%
    16:00 +35°C° 0 mm 2 mps 672 mmHg 35%
    17:00 +34°C° 0 mm 2 mps 672 mmHg 36%
    18:00 +32°C° 0.1 mm 2 mps 672 mmHg 41%
    19:00 +30°C° 0.1 mm 2 mps 672 mmHg 46%
    20:00 +29°C° 0.1 mm 2 mps 672 mmHg 52%
    21:00 +27°C° 0.9 mm 2 mps 672 mmHg 60%
    22:00 +26°C° 0.9 mm 2 mps 673 mmHg 68%
    23:00 +25°C° 0.9 mm 2 mps 673 mmHg 77%

    26 November, Monday

    Time Temperature Precipitation Wind Pressure Humidity
    00:00 +24°C° 0.8 mm 2 mps 672 mmHg 79%
    01:00 +24°C° 0.8 mm 2 mps 672 mmHg 81%
    02:00 +24°C° 0.8 mm 2 mps 671 mmHg 83%
    03:00 +24°C° 0.5 mm 2 mps 672 mmHg 84%
    04:00 +23°C° 0.5 mm 2 mps 672 mmHg 84%
    05:00 +22°C° 0.5 mm 3 mps 672 mmHg 85%
    06:00 +24°C° 0 mm 3 mps 672 mmHg 81%
    07:00 +24°C° 0 mm 3 mps 673 mmHg 78%
    08:00 +25°C° 0 mm 3 mps 673 mmHg 75%
    09:00 +27°C° 0 mm 3 mps 673 mmHg 65%
    10:00 +29°C° 0 mm 3 mps 673 mmHg 56%
    11:00 +31°C° 0 mm 3 mps 673 mmHg 46%
    12:00 +32°C° 0 mm 2 mps 673 mmHg 42%
    13:00 +34°C° 0 mm 2 mps 672 mmHg 38%
    14:00 +35°C° 0 mm 2 mps 671 mmHg 34%
    15:00 +35°C° 0 mm 2 mps 671 mmHg 35%
    16:00 +34°C° 0 mm 2 mps 671 mmHg 36%
    17:00 +34°C° 0 mm 2 mps 670 mmHg 36%
    18:00 +32°C° 0 mm 2 mps 671 mmHg 40%
    19:00 +30°C° 0 mm 2 mps 671 mmHg 44%
    20:00 +29°C° 0 mm 2 mps 671 mmHg 48%
    21:00 +28°C° 0 mm 2 mps 671 mmHg 52%
    22:00 +27°C° 0 mm 2 mps 672 mmHg 55%
    23:00 +27°C° 0 mm 2 mps 672 mmHg 58%
    Show more